| time (UTC) | temp C | wind direction | speed KPH | gust KPH | rain 1hr cm | rain 24hr cm | rain mn cm | humidity % | barometer mb |
| 20260505124520 | 11 | 50 | 0.0 | 0.0 | 0.00 | 0.00 | 0.00 | 64 | 999.9 |
| 20260505123016 | 11 | 50 | 0.0 | 4.8 | 0.00 | 0.00 | 0.00 | 63 | 999.7 |
| 20260505121515 | 11 | 49 | 0.0 | 3.2 | 0.00 | 0.00 | 0.00 | 61 | 999.6 |
| 20260505120016 | 12 | 50 | 0.0 | 0.0 | 0.00 | 0.00 | 0.00 | 60 | 999.5 |
| 20260505114510 | 12 | 49 | 0.0 | 3.2 | 0.00 | 0.00 | 0.00 | 58 | 999.5 |
| 20260505113008 | 12 | 49 | 0.0 | 4.8 | 0.00 | 0.00 | 0.00 | 60 | 999.5 |
| 20260505111508 | 12 | 50 | 3.2 | 6.4 | 0.00 | 0.00 | 0.00 | 61 | 999.6 |
| 20260505101600 | 13 | 325 | 0.0 | 3.2 | 0.00 | 0.00 | 0.00 | 57 | 999.3 |
| 20260505100101 | 13 | 325 | 0.0 | 0.0 | 0.00 | 0.00 | 0.00 | 57 | 999.2 |
| 20260505094557 | 13 | 325 | 0.0 | 0.0 | 0.00 | 0.00 | 0.00 | 57 | 999.1 |
| 20260505093058 | 13 | 325 | 0.0 | 0.0 | 0.00 | 0.00 | 0.00 | 58 | 999.1 |
| 20260505091614 | 13 | 325 | 0.0 | 0.0 | 0.00 | 0.00 | 0.00 | 59 | 999.2 |
| 20260505090053 | 13 | 325 | 0.0 | 0.0 | 0.00 | 0.00 | 0.00 | 59 | 999.0 |
| 20260505084552 | 13 | 325 | 0.0 | 0.0 | 0.00 | 0.00 | 0.00 | 59 | 998.8 |
| 20260505083050 | 13 | 325 | 0.0 | 4.8 | 0.00 | 0.00 | 0.00 | 55 | 998.7 |
| 20260505081557 | 14 | 323 | 0.0 | 0.0 | 0.00 | 0.00 | 0.00 | 56 | 998.7 |
| 20260505080053 | 15 | 323 | 0.0 | 3.2 | 0.00 | 0.00 | 0.00 | 56 | 998.8 |
| 20260505074543 | 15 | 323 | 0.0 | 3.2 | 0.00 | 0.00 | 0.00 | 55 | 999.0 |
| 20260505073045 | 15 | 323 | 0.0 | 3.2 | 0.00 | 0.00 | 0.00 | 55 | 998.9 |
| 20260505071552 | 15 | 323 | 0.0 | 1.6 | 0.00 | 0.00 | 0.00 | 55 | 998.9 |
| 20260505070042 | 15 | 323 | 1.6 | 6.4 | 0.00 | 0.00 | 0.00 | 54 | 998.7 |
| 20260505064536 | 15 | 323 | 1.6 | 8.0 | 0.00 | 0.00 | 0.00 | 53 | 998.7 |
| 20260505063039 | 16 | 325 | 1.6 | 4.8 | 0.00 | 0.00 | 0.00 | 56 | 998.7 |
| 20260505061556 | 16 | 325 | 1.6 | 4.8 | 0.00 | 0.00 | 0.00 | 54 | 998.7 |
| 20260505060032 | 16 | 326 | 4.8 | 12.9 | 0.00 | 0.00 | 0.00 | 53 | 998.6 |
| 20260505054529 | 16 | 295 | 6.4 | 17.7 | 0.00 | 0.00 | 0.00 | 51 | 998.5 |
| 20260505053035 | 17 | 289 | 6.4 | 16.1 | 0.00 | 0.00 | 0.00 | 50 | 998.5 |
| 20260505051551 | 17 | 327 | 6.4 | 9.7 | 0.00 | 0.00 | 0.00 | 44 | 998.4 |
| 20260505041528 | 17 | 36 | 8.0 | 16.1 | 0.00 | 0.00 | 0.00 | 46 | 998.5 |
| 20260505040026 | 17 | 38 | 9.7 | 22.5 | 0.00 | 0.00 | 0.00 | 47 | 998.3 |
| 20260505034523 | 17 | 360 | 14.5 | 20.9 | 0.00 | 0.00 | 0.00 | 45 | 998.2 |
| 20260505033025 | 17 | 319 | 20.9 | 33.8 | 0.00 | 0.00 | 0.00 | 48 | 998.2 |
| 20260505031523 | 18 | 328 | 19.3 | 32.2 | 0.00 | 0.00 | 0.00 | 43 | 998.2 |
| 20260505030022 | 20 | 324 | 8.0 | 19.3 | 0.00 | 0.00 | 0.00 | 36 | 997.9 |
| 20260505024520 | 20 | 135 | 1.6 | 16.1 | 0.00 | 0.00 | 0.00 | 28 | 997.4 |
| 20260505023020 | 20 | 288 | 6.4 | 19.3 | 0.00 | 0.00 | 0.00 | 30 | 997.4 |
| 20260505021521 | 20 | 236 | 4.8 | 16.1 | 0.00 | 0.00 | 0.00 | 36 | 997.6 |
| 20260505020019 | 21 | 5 | 16.1 | 29.0 | 0.00 | 0.00 | 0.00 | 34 | 997.0 |
| 20260505014518 | 21 | 209 | 4.8 | 17.7 | 0.00 | 0.00 | 0.00 | 28 | 996.6 |
| 20260505013018 | 21 | 64 | 0.0 | 8.0 | 0.00 | 0.00 | 0.00 | 34 | 996.6 |
| 20260505011518 | 21 | 66 | 0.0 | 12.9 | 0.00 | 0.00 | 0.00 | 31 | 996.6 |
| 20260505010017 | 22 | 51 | 8.0 | 16.1 | 0.00 | 0.00 | 0.00 | 31 | 996.7 |
| 20260505004514 | 22 | 74 | 6.4 | 11.3 | 0.00 | 0.00 | 0.00 | 29 | 996.9 |
| 20260505003020 | 21 | 348 | 0.0 | 8.0 | 0.00 | 0.00 | 0.00 | 32 | 997.1 |
| 20260505001513 | 22 | 360 | 6.4 | 14.5 | 0.00 | 0.00 | 0.00 | 31 | 997.2 |
| 20260505000012 | 22 | 37 | 6.4 | 20.9 | 0.00 | 0.00 | 0.00 | 30 | 997.2 |
| 20260504234511 | 21 | 55 | 12.9 | 22.5 | 0.00 | 0.00 | 0.00 | 31 | 997.3 |
| 20260504233012 | 21 | 29 | 14.5 | 22.5 | 0.00 | 0.00 | 0.00 | 33 | 997.5 |
| 20260504231509 | 21 | 32 | 14.5 | 27.4 | 0.00 | 0.00 | 0.00 | 37 | 997.4 |
| 20260504230010 | 21 | 19 | 16.1 | 24.1 | 0.00 | 0.00 | 0.00 | 38 | 997.4 |
| 20260504224507 | 20 | 27 | 14.5 | 22.5 | 0.00 | 0.00 | 0.00 | 40 | 997.6 |
| 20260504223007 | 20 | 332 | 14.5 | 22.5 | 0.00 | 0.00 | 0.00 | 39 | 997.6 |
| 20260504221507 | 20 | 336 | 9.7 | 17.7 | 0.00 | 0.00 | 0.00 | 40 | 997.4 |
| 20260504220005 | 21 | 314 | 6.4 | 32.2 | 0.00 | 0.00 | 0.00 | 40 | 998.1 |
| 20260504214504 | 24 | 239 | 12.9 | 17.7 | 0.00 | 0.00 | 0.00 | 24 | 997.6 |
| 20260504213004 | 25 | 186 | 14.5 | 25.7 | 0.00 | 0.00 | 0.00 | 22 | 997.5 |
| 20260504211501 | 25 | 148 | 17.7 | 35.4 | 0.00 | 0.00 | 0.00 | 24 | 997.6 |
| 20260504210109 | 24 | 189 | 22.5 | 38.6 | 0.00 | 0.00 | 0.00 | 24 | 997.6 |
| 20260504204609 | 25 | 212 | 14.5 | 29.0 | 0.00 | 0.00 | 0.00 | 24 | 997.8 |
| 20260504203108 | 25 | 219 | 16.1 | 27.4 | 0.00 | 0.00 | 0.00 | 22 | 997.7 |
| 20260504201557 | 26 | 271 | 1.6 | 14.5 | 0.00 | 0.00 | 0.00 | 21 | 997.8 |
| 20260504200055 | 27 | 150 | 3.2 | 12.9 | 0.00 | 0.00 | 0.00 | 20 | 998.1 |
| 20260504194600 | 25 | 174 | 1.6 | 14.5 | 0.00 | 0.00 | 0.00 | 22 | 998.3 |
| 20260504193051 | 25 | 101 | 12.9 | 19.3 | 0.00 | 0.00 | 0.00 | 22 | 998.6 |
| 20260504191547 | 24 | 112 | 3.2 | 16.1 | 0.00 | 0.00 | 0.00 | 25 | 998.9 |
| 20260504190106 | 23 | 116 | 1.6 | 19.3 | 0.00 | 0.00 | 0.00 | 26 | 999.3 |
| 20260504184542 | 24 | 163 | 8.0 | 16.1 | 0.00 | 0.00 | 0.00 | 26 | 999.6 |
| 20260504183039 | 25 | 249 | 4.8 | 17.7 | 0.00 | 0.00 | 0.00 | 26 | 1000.1 |
| 20260504181541 | 22 | 86 | 0.0 | 17.7 | 0.00 | 0.00 | 0.00 | 29 | 1000.2 |
| 20260504180034 | 23 | 119 | 6.4 | 12.9 | 0.00 | 0.00 | 0.00 | 27 | 1000.6 |
| 20260504174530 | 23 | 155 | 8.0 | 16.1 | 0.00 | 0.00 | 0.00 | 28 | 1000.8 |
| 20260504173027 | 22 | 263 | 11.3 | 19.3 | 0.00 | 0.00 | 0.00 | 30 | 1001.2 |
| 20260504171525 | 22 | 252 | 4.8 | 16.1 | 0.00 | 0.00 | 0.00 | 28 | 1001.3 |